When you browse on this site, cookies collect data to enhance your experience and personalize the content and advertising you see.
Visit our Privacy Policy to learn more. By continuing to use the site, you agree to this use of cookies and data.
  • In Lithuania
  • List of Countries
  • For 7 days
  • Water Temperature
  • Satellite Maps
  • Weather Map
  • Weather Widgets
  • user-avatar
    Login

    Hourly Weather Kipungo

    Today, 27 May, Monday

    Time Temperature Precipitation Wind Pressure Humidity
    00:00 +14°C° 0 mm 1 mps 653 mmHg 45%
    01:00 +13°C° 0 mm 1 mps 653 mmHg 47%
    02:00 +13°C° 0 mm 1 mps 653 mmHg 50%
    03:00 +12°C° 0 mm 1 mps 653 mmHg 53%
    04:00 +12°C° 0 mm 1 mps 653 mmHg 55%
    05:00 +12°C° 0 mm 1 mps 653 mmHg 56%
    06:00 +12°C° 0 mm 1 mps 653 mmHg 57%
    07:00 +12°C° 0 mm 1 mps 653 mmHg 58%
    08:00 +16°C° 0 mm 1 mps 654 mmHg 48%
    09:00 +20°C° 0 mm 2 mps 655 mmHg 39%
    10:00 +25°C° 0 mm 3 mps 656 mmHg 29%
    11:00 +27°C° 0 mm 3 mps 656 mmHg 26%
    12:00 +28°C° 0 mm 2 mps 656 mmHg 22%
    13:00 +30°C° 0 mm 2 mps 655 mmHg 19%
    14:00 +30°C° 0 mm 1 mps 655 mmHg 19%
    15:00 +30°C° 0 mm 1 mps 654 mmHg 18%
    16:00 +30°C° 0 mm 1 mps 654 mmHg 18%
    17:00 +26°C° 0 mm 1 mps 653 mmHg 23%
    18:00 +23°C° 0 mm 1 mps 653 mmHg 28%
    19:00 +20°C° 0 mm 1 mps 652 mmHg 33%
    20:00 +19°C° 0 mm 1 mps 652 mmHg 35%
    21:00 +19°C° 0 mm 1 mps 653 mmHg 37%
    22:00 +18°C° 0 mm 1 mps 653 mmHg 39%
    23:00 +16°C° 0 mm 1 mps 653 mmHg 42%

    Tomorrow, 28 May, Tuesday

    Time Temperature Precipitation Wind Pressure Humidity
    00:00 +15°C° 0 mm 1 mps 652 mmHg 45%
    01:00 +14°C° 0 mm 1 mps 652 mmHg 47%
    02:00 +12°C° 0 mm 0 mps 652 mmHg 48%
    03:00 +12°C° 0 mm 0 mps 652 mmHg 50%
    04:00 +12°C° 0 mm 0 mps 652 mmHg 51%
    05:00 +12°C° 0 mm 0 mps 652 mmHg 51%
    06:00 +12°C° 0 mm 0 mps 652 mmHg 50%
    07:00 +13°C° 0 mm 0 mps 653 mmHg 50%
    08:00 +18°C° 0 mm 1 mps 654 mmHg 42%
    09:00 +21°C° 0 mm 2 mps 655 mmHg 34%
    10:00 +26°C° 0 mm 2 mps 655 mmHg 26%
    11:00 +28°C° 0 mm 2 mps 655 mmHg 23%
    12:00 +29°C° 0 mm 2 mps 655 mmHg 21%
    13:00 +31°C° 0 mm 2 mps 654 mmHg 19%
    14:00 +30°C° 0 mm 2 mps 654 mmHg 19%
    15:00 +30°C° 0 mm 1 mps 654 mmHg 19%
    16:00 +30°C° 0 mm 1 mps 653 mmHg 19%
    17:00 +27°C° 0 mm 1 mps 653 mmHg 24%
    18:00 +24°C° 0 mm 1 mps 653 mmHg 29%
    19:00 +21°C° 0 mm 1 mps 652 mmHg 33%
    20:00 +21°C° 0 mm 1 mps 653 mmHg 36%
    21:00 +19°C° 0 mm 2 mps 653 mmHg 38%
    22:00 +18°C° 0 mm 2 mps 653 mmHg 40%
    23:00 +18°C° 0 mm 1 mps 653 mmHg 44%

    Day after tomorrow, 29 May, Wednesday

    Time Temperature Precipitation Wind Pressure Humidity
    00:00 +16°C° 0 mm 1 mps 653 mmHg 47%
    01:00 +14°C° 0 mm 0 mps 652 mmHg 51%
    02:00 +14°C° 0 mm 0 mps 652 mmHg 52%
    03:00 +13°C° 0 mm 0 mps 652 mmHg 54%
    04:00 +13°C° 0 mm 0 mps 652 mmHg 56%
    05:00 +13°C° 0 mm 0 mps 652 mmHg 55%
    06:00 +14°C° 0 mm 0 mps 653 mmHg 54%
    07:00 +14°C° 0 mm 0 mps 653 mmHg 53%
    08:00 +19°C° 0 mm 0 mps 654 mmHg 43%
    09:00 +23°C° 0 mm 0 mps 656 mmHg 33%
    10:00 +28°C° 0 mm 0 mps 657 mmHg 23%
    11:00 +31°C° 0 mm 1 mps 656 mmHg 23%
    12:00 +31°C° 0 mm 1 mps 656 mmHg 22%
    13:00 +32°C° 0 mm 2 mps 655 mmHg 21%
    14:00 +32°C° 0 mm 2 mps 655 mmHg 21%
    15:00 +31°C° 0 mm 2 mps 654 mmHg 22%
    16:00 +31°C° 0 mm 1 mps 654 mmHg 22%
    17:00 +28°C° 0 mm 1 mps 653 mmHg 27%
    18:00 +25°C° 0 mm 1 mps 653 mmHg 32%
    19:00 +23°C° 0 mm 1 mps 653 mmHg 37%
    20:00 +21°C° 0 mm 1 mps 653 mmHg 40%
    21:00 +20°C° 0 mm 1 mps 654 mmHg 42%
    22:00 +18°C° 0 mm 2 mps 654 mmHg 45%
    23:00 +17°C° 0 mm 2 mps 654 mmHg 48%

    30 May, Thursday

    Time Temperature Precipitation Wind Pressure Humidity
    00:00 +18°C° 0 mm 1 mps 653 mmHg 50%
    01:00 +16°C° 0 mm 1 mps 653 mmHg 52%
    02:00 +16°C° 0 mm 1 mps 653 mmHg 55%
    03:00 +15°C° 0 mm 1 mps 652 mmHg 57%
    04:00 +13°C° 0 mm 0 mps 652 mmHg 59%
    05:00 +14°C° 0 mm 0 mps 653 mmHg 58%
    06:00 +14°C° 0 mm 0 mps 653 mmHg 57%
    07:00 +15°C° 0 mm 0 mps 654 mmHg 55%
    08:00 +19°C° 0 mm 0 mps 655 mmHg 46%
    09:00 +25°C° 0 mm 1 mps 656 mmHg 36%
    10:00 +29°C° 0 mm 1 mps 657 mmHg 27%
    11:00 +30°C° 0 mm 1 mps 656 mmHg 25%
    12:00 +31°C° 0 mm 1 mps 656 mmHg 23%
    13:00 +32°C° 0 mm 2 mps 655 mmHg 22%
    14:00 +32°C° 0 mm 2 mps 655 mmHg 22%
    15:00 +31°C° 0 mm 1 mps 654 mmHg 22%
    16:00 +31°C° 0 mm 1 mps 654 mmHg 22%
    17:00 +28°C° 0 mm 1 mps 654 mmHg 26%
    18:00 +26°C° 0 mm 1 mps 653 mmHg 30%
    19:00 +23°C° 0 mm 1 mps 653 mmHg 35%
    20:00 +22°C° 0 mm 1 mps 654 mmHg 37%
    21:00 +21°C° 0 mm 1 mps 654 mmHg 39%
    22:00 +18°C° 0 mm 2 mps 654 mmHg 41%
    23:00 +18°C° 0 mm 2 mps 653 mmHg 42%

    31 May, Friday

    Time Temperature Precipitation Wind Pressure Humidity
    00:00 +17°C° 0 mm 2 mps 653 mmHg 43%
    01:00 +17°C° 0 mm 2 mps 653 mmHg 44%
    02:00 +16°C° 0 mm 1 mps 653 mmHg 46%
    03:00 +15°C° 0 mm 1 mps 652 mmHg 48%
    04:00 +15°C° 0 mm 1 mps 652 mmHg 50%
    05:00 +14°C° 0 mm 0 mps 652 mmHg 50%
    06:00 +14°C° 0 mm 0 mps 653 mmHg 50%
    07:00 +14°C° 0 mm 0 mps 653 mmHg 50%
    08:00 +19°C° 0 mm 0 mps 654 mmHg 41%
    09:00 +23°C° 0 mm 0 mps 655 mmHg 32%
    10:00 +30°C° 0 mm 1 mps 657 mmHg 23%
    11:00 +31°C° 0 mm 1 mps 656 mmHg 21%
    12:00 +32°C° 0 mm 1 mps 655 mmHg 20%
    13:00 +34°C° 0 mm 2 mps 655 mmHg 19%
    14:00 +32°C° 0 mm 2 mps 654 mmHg 19%
    15:00 +32°C° 0 mm 2 mps 654 mmHg 19%
    16:00 +32°C° 0 mm 1 mps 653 mmHg 19%
    17:00 +29°C° 0 mm 1 mps 653 mmHg 23%
    18:00 +27°C° 0 mm 1 mps 653 mmHg 27%
    19:00 +24°C° 0 mm 1 mps 653 mmHg 30%
    20:00 +23°C° 0 mm 1 mps 653 mmHg 32%
    21:00 +23°C° 0 mm 2 mps 654 mmHg 33%
    22:00 +21°C° 0 mm 2 mps 654 mmHg 34%
    23:00 +19°C° 0 mm 2 mps 653 mmHg 36%

    1 June, Saturday

    Time Temperature Precipitation Wind Pressure Humidity
    00:00 +19°C° 0 mm 1 mps 653 mmHg 38%
    01:00 +18°C° 0 mm 1 mps 652 mmHg 40%
    02:00 +18°C° 0 mm 1 mps 652 mmHg 41%
    03:00 +16°C° 0 mm 1 mps 652 mmHg 42%
    04:00 +16°C° 0 mm 1 mps 652 mmHg 43%
    05:00 +16°C° 0 mm 1 mps 652 mmHg 44%
    06:00 +16°C° 0 mm 1 mps 653 mmHg 44%
    07:00 +16°C° 0 mm 1 mps 653 mmHg 45%
    08:00 +21°C° 0 mm 1 mps 654 mmHg 37%
    09:00 +25°C° 0 mm 1 mps 655 mmHg 29%
    10:00 +29°C° 0 mm 2 mps 656 mmHg 21%
    11:00 +30°C° 0 mm 2 mps 655 mmHg 20%
    12:00 +31°C° 0 mm 2 mps 655 mmHg 19%
    13:00 +33°C° 0 mm 3 mps 654 mmHg 18%
    14:00 +32°C° 0 mm 2 mps 654 mmHg 17%
    15:00 +32°C° 0 mm 2 mps 654 mmHg 17%
    16:00 +32°C° 0 mm 1 mps 653 mmHg 17%
    17:00 +29°C° 0 mm 1 mps 653 mmHg 21%
    18:00 +26°C° 0 mm 1 mps 653 mmHg 25%
    19:00 +20°C° 0 mm 0 mps 653 mmHg 30%
    20:00 +20°C° 0 mm 0 mps 653 mmHg 31%
    21:00 +21°C° 0 mm 1 mps 653 mmHg 32%
    22:00 +21°C° 0 mm 1 mps 653 mmHg 34%
    23:00 +20°C° 0 mm 1 mps 653 mmHg 35%
    Show more